Lid_Strength_Index
8 7 8 8 9 10 11 11 13 14 16 17 17 17 16 16 15 15 14 14 15 15 15 15 16 15 16 16 16 16 16 15 15 16 15 14 15 14 14 13 13 13 13
8 8 8 9 10 11 12 13 14 15 16 16 16 17 17 17 15 16 15 15 15 16 16 16 17 17 17 17 17 17 16 15 15 16 15 15 15 14 14 14 14 14 13
8 8 9 9 11 12 13 13 14 15 16 17 17 17 17 17 17 16 16 15 15 16 16 16 17 17 18 18 17 17 16 17 15 15 15 15 15 14 14 13 13 13 13
9 9 9 10 11 12 13 14 15 15 16 17 17 17 17 17 17 17 17 16 16 16 16 16 17 17 17 18 17 16 16 16 16 16 15 15 15 14 15 15 14 12 13
10 10 10 10 11 12 13 14 14 15 16 16 17 17 18 18 17 18 17 17 16 16 16 17 16 16 16 16 16 16 16 15 16 16 16 16 15 15 15 13 14 13 12
10 10 10 11 12 13 14 14 15 15 16 17 17 17 18 18 15 15 16 16 17 17 17 18 17 17 15 14 14 14 14 15 15 15 15 15 15 14 13 13 13 14 15
11 11 11 12 13 13 14 15 15 15 16 17 17 17 18 17 14 15 15 16 17 17 18 18 17 17 16 15 13 13 13 13 13 14 14 13 13 12 12 13 13 13 13
12 12 12 13 13 14 15 15 16 16 16 17 17 17 17 17 14 14 15 16 17 16 17 16 16 16 15 15 15 15 14 14 13 12 12 11 11 11 12 12 12 12 11
13 13 13 13 14 14 15 15 15 16 16 16 17 17 17 16 14 14 15 16 16 16 16 15 15 15 14 13 15 15 15 14 13 12 11 10 10 9 9 10 11 13 13
13 13 13 13 14 14 14 15 15 15 16 17 17 17 17 16 13 13 15 16 15 16 16 15 14 14 14 13 13 13 14 13 13 12 12 11 10 10 9 9 9 11 11
13 13 14 13 14 14 14 14 15 16 17 17 17 17 16 15 13 13 13 15 14 15 15 15 15 13 13 12 11 12 12 11 11 11 10 10 11 11 10 9 9 9 10
14 14 14 14 14 14 15 15 15 15 16 16 16 17 16 15 13 12 12 12 12 12 13 13 13 11 10 10 10 10 9 9 9 10 11 11 11 11 11 10 10 10 9
15 15 15 14 14 13 14 14 15 15 16 16 16 16 17 16 14 11 11 11 11 12 12 12 12 11 10 10 10 11 12 12 12 12 12 12 11 11 11 11 10 10 11
15 15 14 14 14 14 13 14 14 14 15 15 15 15 15 15 14 12 11 10 10 10 11 11 11 11 11 13 13 13 13 13 13 13 13 12 12 12 12 11 12 13 13
14 14 13 13 13 13 13 13 13 13 12 13 12 12 14 15 14 12 11 11 11 11 15 14 14 14 14 14 15 15 14 14 14 14 14 14 14 13 13 13 13 14 15
13 12 12 13 13 13 13 13 12 11 11 10 10 11 11 11 11 11 10 10 10 11 13 14 14 14 14 14 15 15 16 17 15 15 15 15 15 15 15 15 14 15 16
12 12 12 13 13 14 14 13 13 12 10 10 10 10 11 10 10 9 9 8 9 10 13 14 14 14 14 15 16 17 17 16 17 16 16 16 16 16 16 16 16 17 17
12 12 12 13 13 13 12 12 12 12 13 13 11 11 10 10 9 9 9 11 15 15 14 14 14 15 16 17 17 17 17 17 17 17 17 17 17 17 17 17 17 18 17
13 13 13 12 12 12 12 12 11 12 13 14 13 14 11 10 10 9 11 13 14 15 16 16 16 17 18 17 18 18 18 18 18 18 18 18 18 18 18 18 18 18 18
18 18 15 14 15 14 14 14 14 14 15 14 13 14 15 14 15 17 18 17 16 16 17 18 19 19 19 19 19 19 19 19 19 19 18 18 18 18 19 18 18 18 18
18 18 19 16 15 15 15 15 15 15 15 15 14 18 17 13 15 17 18 19 18 18 19 19 20 20 20 20 20 20 20 18 19 19 19 18 19 20 19 18 18 18 18
17 18 17 17 18 17 16 16 16 16 16 16 18 17 13 16 18 18 19 20 20 19 19 19 20 20 20 21 21 20 20 20 19 19 19 19 20 19 19 18 19 19 18
19 19 19 20 20 21 19 19 18 17 17 17 18 18 17 18 19 19 19 20 21 22 22 22 21 22 22 23 21 20 20 20 19 19 19 19 19 19 19 19 19 20 19
19 19 20 21 20 20 19 19 19 20 18 19 19 19 19 19 20 20 21 21 22 22 23 24 23 22 22 22 23 22 22 21 19 20 21 20 20 20 20 19 20 20 20
20 20 20 20 20 20 21 20 19 20 20 20 20 20 20 21 21 21 21 22 23 23 23 24 23 23 24 24 23 22 21 20 21 21 21 21 21 21 21 21 21 20 21
22 22 22 22 21 21 21 20 20 21 21 21 21 21 21 21 21 21 22 22 23 23 23 22 23 24 24 24 23 22 22 20 22 23 21 20 21 21 21 22 22 22 22